New Roads False River Regiona, LA

4:45 PM CDT on October 20, 2019 (GMT -0500)
False River

Weather History for KHZR - August, 2019

Change the Weather History Date:

Friday, August 23, 2019

  Actual Average (WUND) Record (WUND)
Temperature  
Mean Temperature 78 °F -  
Max Temperature 82 °F - - (-1)
Min Temperature 73 °F - - (-1)
Cooling Degree Days 12    
Growing Degree Days 28 (Base 50)    
Moisture  
Dew Point 74 °F    
Average Humidity 88    
Maximum Humidity 100    
Minimum Humidity 74    
Precipitation  
Precipitation 0.00 in - - ()
Sea Level Pressure  
Sea Level Pressure 29.98 in    
Wind  
Wind Speed 3 mph ()    
Max Wind Speed 9 mph    
Max Gust Speed -    
Visibility 10.0 miles    
Events Rain , Thunderstorm    
Averages and records for this station are not official NWS values.
T = Trace of Precipitation, MM = Missing Value Source: Averaged Metar Reports

Daily Weather History Graph

Daily Weather History Graph

Search for Another Location

Airport or City:

Astronomy

Aug. 23, 2019 Rise Set
Actual Time 6:37 AM CDT 7:39 PM CDT
Civil Twilight 6:12 AM CDT 8:04 PM CDT
Nautical Twilight 5:42 AM CDT 8:34 PM CDT
Astronomical Twilight 5:11 AM CDT 9:04 PM CDT
Moon No Moon Rise 1:43 PM CDT (8/23)
Length of Visible Light 13h 52m
Length of Day
13h 02m
Waning Gibbous, 49% of the Moon is Illuminated
Aug 23
Waning Gibbous
Aug 30
New
Sep 5
First Quarter
Sep 13
Full
Sep 21
Last Quarter

Hourly Weather History & Observations

Time (CDT) Temp. Heat Index Dew Point Humidity Pressure Visibility Wind Dir Wind Speed Gust Speed Precip Events Conditions
12:16 AM 77.0 °F - 73.4 °F 89% 29.97 in 10.0 mi ESE 3.5 mph - N/A   Clear
12:38 AM 75.2 °F - 73.4 °F 94% 29.97 in 10.0 mi Calm Calm - N/A   Clear
12:59 AM 75.2 °F - 73.4 °F 94% 29.97 in 10.0 mi Calm Calm - N/A   Clear
1:16 AM 75.2 °F - 73.4 °F 94% 29.97 in 7.0 mi Calm Calm - N/A   Clear
1:36 AM 75.2 °F - 73.4 °F 94% 29.97 in 10.0 mi Calm Calm - N/A   Clear
1:56 AM 75.2 °F - 73.4 °F 94% 29.96 in 10.0 mi Calm Calm - N/A   Clear
2:16 AM 75.2 °F - 73.4 °F 94% 29.97 in 10.0 mi Calm Calm - N/A   Clear
2:36 AM 75.2 °F - 73.4 °F 94% 29.96 in 10.0 mi Calm Calm - N/A   Clear
2:56 AM 75.2 °F - 73.4 °F 94% 29.96 in 10.0 mi Calm Calm - N/A   Clear
3:16 AM 75.2 °F - 73.4 °F 94% 29.95 in 10.0 mi Calm Calm - N/A   Clear
3:36 AM 75.2 °F - 73.4 °F 94% 29.95 in 10.0 mi Calm Calm - N/A   Clear
3:56 AM 73.4 °F - 73.4 °F 100% 29.95 in 10.0 mi Calm Calm - N/A   Clear
4:16 AM 73.4 °F - 73.4 °F 100% 29.96 in 10.0 mi Calm Calm - N/A   Clear
4:36 AM 73.4 °F - 73.4 °F 100% 29.96 in 10.0 mi Calm Calm - N/A   Clear
4:56 AM 75.2 °F - 75.2 °F 100% 29.97 in 10.0 mi SE 4.6 mph - N/A   Clear
5:16 AM 75.2 °F - 75.2 °F 100% 29.97 in 10.0 mi SE 3.5 mph - N/A   Clear
5:36 AM 75.2 °F - 75.2 °F 100% 29.97 in 10.0 mi SE 4.6 mph - N/A   Clear
5:59 AM 75.2 °F - 75.2 °F 100% 29.97 in 10.0 mi Calm Calm - N/A   Clear
6:17 AM 75.2 °F - 75.2 °F 100% 29.98 in 10.0 mi SE 3.5 mph - N/A Thunderstorm Scattered Clouds
7:16 AM 75.2 °F - 75.2 °F 100% 30.00 in 10.0 mi SE 4.6 mph - N/A   Clear
7:36 AM 77.0 °F - 75.2 °F 94% 30.00 in 10.0 mi SSE 3.5 mph - N/A   Scattered Clouds
7:56 AM 77.0 °F - 75.2 °F 94% 30.00 in 10.0 mi SE 5.8 mph - N/A Thunderstorm Scattered Clouds
8:18 AM 77.0 °F - 75.2 °F 94% 30.00 in 10.0 mi SE 5.8 mph - N/A   Clear
8:36 AM 77.0 °F - 75.2 °F 94% 30.00 in 10.0 mi SSE 5.8 mph - N/A   Clear
8:58 AM 77.0 °F - 73.4 °F 89% 30.01 in 10.0 mi SSE 3.5 mph - N/A   Clear
9:18 AM 77.0 °F - 73.4 °F 89% 30.02 in 10.0 mi SSE 3.5 mph - N/A   Clear
9:36 AM 77.0 °F - 73.4 °F 89% 30.02 in 10.0 mi Calm Calm - N/A   Light Drizzle
10:36 AM 78.8 °F - 73.4 °F 83% 30.02 in 10.0 mi Calm Calm - N/A   Mostly Cloudy
10:57 AM 80.6 °F 85.4 °F 73.4 °F 79% 30.01 in 10.0 mi Calm Calm - N/A   Scattered Clouds
11:18 AM 80.6 °F 85.4 °F 73.4 °F 79% 30.01 in 10.0 mi SE 3.5 mph - N/A   Clear
11:36 AM 80.6 °F 85.4 °F 73.4 °F 79% 30.00 in 10.0 mi Calm Calm - N/A   Clear
12:16 PM 82.4 °F 88.2 °F 73.4 °F 74% 29.99 in 10.0 mi SE 9.2 mph - N/A   Clear
12:36 PM 82.4 °F 88.2 °F 73.4 °F 74% 29.99 in 10.0 mi SSE 8.1 mph - N/A   Clear
12:56 PM 82.4 °F 88.2 °F 73.4 °F 74% 30.00 in 10.0 mi SSE 5.8 mph - N/A   Clear
1:16 PM 80.6 °F 85.4 °F 73.4 °F 79% 29.99 in 10.0 mi SSE 5.8 mph - N/A   Scattered Clouds
1:37 PM 80.6 °F 85.4 °F 73.4 °F 79% 30.00 in 10.0 mi SSE 5.8 mph - N/A   Scattered Clouds
1:56 PM 80.6 °F 85.4 °F 73.4 °F 79% 30.00 in 10.0 mi South 5.8 mph - N/A Rain Light Rain
2:16 PM 80.6 °F 86.2 °F 75.2 °F 84% 30.00 in 10.0 mi SSE 5.8 mph - N/A Rain Light Rain
2:36 PM 80.6 °F 86.2 °F 75.2 °F 84% 29.99 in 10.0 mi South 8.1 mph - N/A Rain Light Rain
2:58 PM 82.4 °F 89.5 °F 75.2 °F 79% 29.97 in 10.0 mi South 6.9 mph - N/A   Scattered Clouds
3:16 PM 82.4 °F 89.5 °F 75.2 °F 79% 29.97 in 10.0 mi South 4.6 mph - N/A   Scattered Clouds
3:36 PM 82.4 °F 89.5 °F 75.2 °F 79% 29.97 in 10.0 mi South 5.8 mph - N/A   Scattered Clouds
3:56 PM 82.4 °F 89.5 °F 75.2 °F 79% 29.96 in 10.0 mi SSE 3.5 mph - N/A   Scattered Clouds
5:16 PM 82.4 °F 89.5 °F 75.2 °F 79% 29.97 in 10.0 mi SSW 8.1 mph - N/A   Scattered Clouds
5:39 PM 82.4 °F 89.5 °F 75.2 °F 79% 29.97 in 10.0 mi South 8.1 mph - N/A   Scattered Clouds
5:56 PM 82.4 °F 89.5 °F 75.2 °F 79% 29.97 in 10.0 mi South 6.9 mph - N/A   Clear
6:16 PM 80.6 °F 85.4 °F 73.4 °F 79% 29.97 in 10.0 mi South 5.8 mph - N/A   Clear
6:36 PM 80.6 °F 85.4 °F 73.4 °F 79% 29.97 in 10.0 mi South 3.5 mph - N/A   Clear
6:56 PM 80.6 °F 85.4 °F 73.4 °F 79% 29.96 in 10.0 mi SSE 3.5 mph - N/A   Clear
7:16 PM 80.6 °F 85.4 °F 73.4 °F 79% 29.96 in 10.0 mi South 3.5 mph - N/A   Clear
7:38 PM 80.6 °F 85.4 °F 73.4 °F 79% 29.95 in 10.0 mi SSE 5.8 mph - N/A   Clear
7:56 PM 80.6 °F 86.2 °F 75.2 °F 84% 29.95 in 10.0 mi South 5.8 mph - N/A   Clear
8:16 PM 78.8 °F - 73.4 °F 83% 29.95 in 10.0 mi SE 3.5 mph - N/A   Clear
8:36 PM 78.8 °F - 73.4 °F 83% 29.96 in 10.0 mi SSE 3.5 mph - N/A   Clear
8:56 PM 78.8 °F - 73.4 °F 83% 29.97 in 10.0 mi SSE 8.1 mph - N/A   Clear
9:16 PM 78.8 °F - 73.4 °F 83% 29.97 in 10.0 mi South 6.9 mph - N/A   Clear
9:36 PM 78.8 °F - 71.6 °F 78% 29.97 in 10.0 mi South 6.9 mph - N/A   Clear
9:56 PM 77.0 °F - 71.6 °F 83% 29.97 in 10.0 mi SSE 6.9 mph - N/A   Clear
10:36 PM 75.2 °F - 73.4 °F 94% 29.97 in 10.0 mi SSE 5.8 mph - N/A   Clear
10:58 PM 75.2 °F - 73.4 °F 94% 29.97 in 10.0 mi Calm Calm - N/A   Clear
11:16 PM 75.2 °F - 73.4 °F 94% 29.97 in 10.0 mi Calm Calm - N/A   Clear
11:38 PM 73.4 °F - 73.4 °F 100% 29.97 in 10.0 mi Calm Calm - N/A   Clear
11:56 PM 73.4 °F - 73.4 °F 100% 29.97 in 10.0 mi ESE 3.5 mph - N/A   Clear